Time,TemperatureF,DewpointF,PressureIn,WindDirection,WindDirectionDegrees,WindSpeedMPH,WindSpeedGustMPH,Humidity,HourlyPrecipIn,Conditions,Clouds,dailyrainin,SoftwareType,DateUTC
2013-11-26 00:23:00,31.0,19.0,30.25,WSW,248,0.0,0.0,61,0.00,,,0.00,,2013-11-26 05:23:00,
2013-11-26 00:43:00,31.0,19.0,30.25,SW,225,0.0,0.0,61,0.00,,,0.00,,2013-11-26 05:43:00,
2013-11-26 00:53:00,32.0,20.0,30.27,WNW,293,0.0,0.0,60,0.00,,,0.00,,2013-11-26 05:53:00,
2013-11-26 01:22:00,32.0,19.0,30.25,West,270,0.0,0.0,58,0.00,,,0.00,,2013-11-26 06:22:00,
2013-11-26 01:52:00,32.0,19.0,30.24,WSW,248,0.0,3.0,57,0.00,,,0.00,,2013-11-26 06:52:00,
2013-11-26 02:22:00,32.0,19.0,30.25,WNW,293,0.0,0.0,57,0.00,,,0.00,,2013-11-26 07:22:00,
2013-11-26 02:52:00,32.0,18.0,30.25,West,270,0.0,0.0,56,0.00,,,0.00,,2013-11-26 07:52:00,
2013-11-26 03:22:00,32.0,19.0,30.25,WSW,248,0.0,1.0,57,0.00,,,0.00,,2013-11-26 08:22:00,
2013-11-26 03:52:00,32.0,19.0,30.25,WNW,293,0.0,0.0,57,0.00,,,0.00,,2013-11-26 08:52:00,
2013-11-26 04:22:00,32.0,19.0,30.24,WSW,248,0.0,0.0,58,0.00,,,0.00,,2013-11-26 09:22:00,
2013-11-26 04:43:00,32.0,19.0,30.24,West,270,0.0,0.0,58,0.00,,,0.00,,2013-11-26 09:43:00,
2013-11-26 04:54:00,32.0,19.0,30.26,West,270,0.0,0.0,58,0.00,,,0.00,,2013-11-26 09:54:00,
2013-11-26 05:23:00,33.0,20.0,30.25,West,270,0.0,0.0,59,0.00,,,0.00,,2013-11-26 10:23:00,
2013-11-26 05:53:00,33.0,21.0,30.26,SW,225,0.0,0.0,60,0.00,,,0.00,,2013-11-26 10:53:00,
2013-11-26 06:23:00,33.0,21.0,30.27,WNW,293,0.0,0.0,61,0.00,,,0.00,,2013-11-26 11:23:00,
2013-11-26 06:53:00,33.0,21.0,30.27,West,270,0.0,0.0,61,0.00,,,0.00,,2013-11-26 11:53:00,
2013-11-26 07:22:00,33.0,21.0,30.28,West,270,0.0,0.0,62,0.00,,,0.00,,2013-11-26 12:22:00,
2013-11-26 07:52:00,33.0,21.0,30.28,WSW,248,0.0,0.0,62,0.00,,,0.00,,2013-11-26 12:52:00,
2013-11-26 08:22:00,34.0,22.0,30.27,West,270,0.0,0.0,62,0.00,,,0.00,,2013-11-26 13:22:00,
2013-11-26 08:42:00,34.0,22.0,30.28,West,270,0.0,0.0,62,0.00,,,0.00,,2013-11-26 13:42:00,
2013-11-26 08:52:00,34.0,22.0,30.29,West,270,0.0,0.0,61,0.00,,,0.00,,2013-11-26 13:52:00,
2013-11-26 09:22:00,35.0,23.0,30.29,WSW,248,0.0,0.0,60,0.00,,,0.00,,2013-11-26 14:22:00,
2013-11-26 09:52:00,37.0,24.0,30.28,West,270,0.0,0.0,59,0.00,,,0.00,,2013-11-26 14:52:00,
2013-11-26 10:22:00,38.0,24.0,30.29,West,270,0.0,0.0,57,0.00,,,0.00,,2013-11-26 15:22:00,
2013-11-26 10:54:00,38.0,24.0,30.29,WNW,293,0.0,0.0,56,0.00,,,0.00,,2013-11-26 15:54:00,
2013-11-26 11:23:00,38.0,23.0,30.27,West,270,0.0,0.0,55,0.00,,,0.00,,2013-11-26 16:23:00,
2013-11-26 11:54:00,39.0,24.0,30.25,WNW,293,0.0,0.0,54,0.00,,,0.00,,2013-11-26 16:54:00,
2013-11-26 12:22:00,40.0,24.0,30.26,SW,225,0.0,0.0,53,0.00,,,0.00,,2013-11-26 17:22:00,
2013-11-26 12:52:00,41.0,25.0,30.24,West,270,0.0,0.0,52,0.00,,,0.00,,2013-11-26 17:52:00,
2013-11-26 13:22:00,41.0,25.0,30.24,West,270,0.0,0.0,52,0.00,,,0.00,,2013-11-26 18:22:00,
2013-11-26 13:53:00,41.0,24.0,30.23,West,270,0.0,0.0,51,0.00,,,0.00,,2013-11-26 18:53:00,
2013-11-26 14:22:00,42.0,25.0,30.23,WSW,248,0.0,0.0,50,0.00,,,0.00,,2013-11-26 19:22:00,
2013-11-26 14:52:00,42.0,25.0,30.22,West,270,0.0,0.0,50,0.00,,,0.00,,2013-11-26 19:52:00,
2013-11-26 15:22:00,41.0,24.0,30.22,West,270,0.0,0.0,50,0.00,,,0.00,,2013-11-26 20:22:00,
2013-11-26 15:53:00,41.0,23.0,30.22,SE,135,0.0,0.0,48,0.00,,,0.00,,2013-11-26 20:53:00,
2013-11-26 16:22:00,40.0,21.0,30.22,South,180,0.0,0.0,46,0.00,,,0.00,,2013-11-26 21:22:00,
2013-11-26 16:53:00,38.0,22.0,30.21,SSE,158,0.0,0.0,51,0.00,,,0.00,,2013-11-26 21:53:00,
2013-11-26 17:23:00,37.0,23.0,30.21,SSE,158,0.0,0.0,57,0.00,,,0.00,,2013-11-26 22:23:00,
2013-11-26 17:43:00,36.0,24.0,30.21,SSE,158,0.0,0.0,61,0.00,,,0.00,,2013-11-26 22:43:00,
2013-11-26 17:53:00,36.0,25.0,30.20,SSE,158,0.0,0.0,64,0.00,,,0.00,,2013-11-26 22:53:00,
2013-11-26 18:22:00,35.0,26.0,30.19,SSE,158,0.0,0.0,69,0.00,,,0.00,,2013-11-26 23:22:00,
2013-11-26 18:53:00,35.0,27.0,30.19,SE,135,0.0,0.0,73,0.00,,,0.00,,2013-11-26 23:53:00,
2013-11-26 19:22:00,35.0,28.0,30.18,SE,135,0.0,0.0,75,0.00,,,0.00,,2013-11-27 00:22:00,
2013-11-26 19:52:00,35.0,29.0,30.17,ESE,113,0.0,0.0,77,0.00,,,0.00,,2013-11-27 00:52:00,
2013-11-26 20:22:00,35.0,29.0,30.15,SE,135,0.0,7.0,80,0.00,,,0.00,,2013-11-27 01:22:00,
2013-11-26 20:52:00,36.0,31.0,30.14,SE,135,0.0,0.0,81,0.00,,,0.00,,2013-11-27 01:52:00,
2013-11-26 21:22:00,36.0,31.0,30.11,East,90,0.0,0.0,82,0.00,,,0.00,,2013-11-27 02:22:00,
2013-11-26 21:52:00,36.0,31.0,30.08,SE,135,2.0,2.0,83,0.00,,,0.00,,2013-11-27 02:52:00,
2013-11-26 22:22:00,37.0,33.0,30.06,SSE,158,0.0,4.0,84,0.00,,,0.00,,2013-11-27 03:22:00,
2013-11-26 22:53:00,38.0,34.0,30.03,ESE,121,2.0,11.0,85,0.00,,,0.00,,2013-11-27 03:53:00,
2013-11-26 23:13:00,39.0,35.0,30.02,SSE,149,5.0,10.0,86,0.00,,,0.00,,2013-11-27 04:13:00,
2013-11-26 23:53:00,40.0,36.0,29.98,SE,135,3.0,13.0,87,0.00,,,0.00,,2013-11-27 04:53:00,